Location: Vancouver
(49.2500°N, 123.1330°W)
Time: 16:08:34
(UTC-08:00)

A-11 Canister half - Visible Passes

Search period start: 07 December 2016 00:00
Search period end: 17 December 2016 00:00
Orbit: 1527 x 1682 km, 47.3° (Epoch: 07 December)

Date Brightness Start Highest point End Pass type
(mag) Time Alt. Az. Time Alt. Az. Time Alt. Az.
07 Dec 9.4 16:50:07 10° SW 17:00:07 65° SSE 17:10:02 10° E visible
07 Dec 9.1 18:54:51 10° W 19:05:03 81° S 19:08:42 46° ESE visible
07 Dec 9.7 21:00:01 10° WNW 21:07:00 46° WSW 21:07:00 46° WSW visible
08 Dec 9.1 18:33:14 10° W 18:43:26 81° S 18:48:21 36° E visible
08 Dec 9.4 20:38:24 10° WNW 20:46:39 56° WSW 20:46:39 56° WSW visible
08 Dec 11.2 22:44:03 10° W 22:44:58 13° W 22:44:58 13° W visible
09 Dec 9.2 18:11:38 10° W 18:21:49 81° S 18:28:01 28° E visible
09 Dec 9.2 20:16:46 10° W 20:26:20 63° SW 20:26:20 63° SW visible
09 Dec 10.9 22:22:21 10° W 22:24:38 17° W 22:24:38 17° W visible
10 Dec 9.2 17:50:01 10° W 18:00:12 81° S 18:07:43 21° E visible
10 Dec 9.1 19:55:09 10° W 20:05:09 65° SSW 20:06:02 63° S visible
10 Dec 10.7 22:00:40 10° W 22:04:21 22° W 22:04:21 22° W visible
11 Dec 9.2 17:28:24 10° W 17:38:35 81° S 17:47:28 15° E visible
11 Dec 9.2 19:33:32 10° W 19:43:33 67° SSW 19:45:48 54° SSE visible
11 Dec 10.5 21:39:00 10° WNW 21:44:06 27° WSW 21:44:06 27° WSW visible
12 Dec 9.3 17:06:46 10° W 17:16:58 81° S 17:27:05 10° E visible
12 Dec 9.2 19:11:54 10° W 19:21:58 68° SSW 19:25:36 44° SE visible
12 Dec 10.3 21:17:20 10° WNW 21:23:55 31° WSW 21:23:55 31° WSW visible
13 Dec 9.3 16:45:10 10° W 16:55:21 80° S 17:05:28 10° E visible
13 Dec 9.3 18:50:17 10° W 19:00:22 69° SSW 19:05:29 33° SE visible
13 Dec 10.1 20:55:40 10° WNW 21:03:49 35° SW 21:03:49 35° SW visible
14 Dec 9.3 18:28:41 10° W 18:38:46 71° SSW 18:45:27 24° ESE visible
14 Dec 9.9 20:34:00 10° WNW 20:42:55 37° SW 20:43:47 36° SSW visible
15 Dec 9.3 18:07:03 10° W 18:17:10 72° SSW 18:25:31 16° ESE visible
15 Dec 10.0 20:12:21 10° WNW 20:21:22 39° SW 20:23:52 34° S visible
15 Dec 11.2 22:21:58 10° WSW 22:22:13 10° WSW 22:22:13 10° WSW visible
16 Dec 9.3 17:45:26 10° W 17:55:34 73° SSW 18:05:34 10° ESE visible
16 Dec 10.0 19:50:42 10° WNW 19:59:50 40° SW 20:04:04 28° S visible
16 Dec 11.1 21:59:29 10° WSW 22:02:26 12° WSW 22:02:26 12° WSW visible
